QPF
0.00 0.00 0.00 0.00 0.00 0.00 0.00 0.00 0.01 0.01 0.02 0.03 0.03 0.04 0.05 0.08 0.06 0.05 0.04 0.05 0.05 0.04 0.03 0.03 0.05 0.07 0.10 0.10 0.10 0.10 0.09 0.09 0.08 0.09 0.05 0.04 0.03 0.03 0.03 0.03 0.03 0.03 0.03 0.04
0.00 0.00 0.00 0.00 0.00 0.00 0.00 0.00 0.00 0.00 0.00 0.01 0.02 0.04 0.05 0.06 0.05 0.04 0.04 0.04 0.04 0.03 0.02 0.03 0.04 0.06 0.10 0.11 0.13 0.15 0.11 0.09 0.06 0.10 0.10 0.05 0.04 0.04 0.03 0.02 0.02 0.02 0.02 0.03
0.00 0.00 0.00 0.00 0.00 0.00 0.00 0.00 0.00 0.00 0.01 0.01 0.02 0.03 0.03 0.04 0.05 0.05 0.05 0.05 0.05 0.03 0.04 0.04 0.05 0.05 0.06 0.07 0.09 0.12 0.13 0.09 0.06 0.09 0.12 0.06 0.04 0.03 0.03 0.02 0.02 0.01 0.01 0.02
0.00 0.00 0.00 0.00 0.00 0.00 0.00 0.00 0.00 0.00 0.01 0.01 0.02 0.02 0.02 0.02 0.03 0.04 0.05 0.05 0.05 0.04 0.04 0.04 0.06 0.06 0.05 0.05 0.05 0.05 0.08 0.09 0.10 0.10 0.10 0.08 0.05 0.04 0.03 0.04 0.03 0.03 0.02 0.02
0.00 0.00 0.00 0.00 0.00 0.00 0.00 0.00 0.00 0.00 0.01 0.01 0.01 0.01 0.01 0.02 0.02 0.02 0.04 0.04 0.03 0.03 0.04 0.05 0.07 0.08 0.07 0.05 0.05 0.04 0.04 0.07 0.11 0.17 0.15 0.10 0.06 0.05 0.06 0.05 0.05 0.04 0.03 0.03
0.00 0.00 0.00 0.00 0.00 0.00 0.00 0.00 0.00 0.00 0.00 0.00 0.00 0.00 0.00 0.01 0.01 0.01 0.02 0.03 0.04 0.05 0.05 0.05 0.05 0.06 0.05 0.05 0.05 0.05 0.05 0.08 0.10 0.16 0.18 0.12 0.07 0.06 0.08 0.07 0.07 0.06 0.04 0.03
0.00 0.00 0.00 0.00 0.00 0.00 0.00 0.00 0.00 0.01 0.01 0.00 0.00 0.00 0.00 0.01 0.01 0.02 0.02 0.03 0.05 0.06 0.06 0.06 0.06 0.05 0.04 0.05 0.06 0.06 0.04 0.05 0.06 0.06 0.06 0.06 0.06 0.06 0.05 0.05 0.06 0.05 0.05 0.04
0.00 0.00 0.00 0.00 0.00 0.00 0.00 0.00 0.00 0.00 0.00 0.00 0.00 0.00 0.00 0.00 0.01 0.02 0.02 0.03 0.04 0.05 0.05 0.05 0.04 0.04 0.06 0.07 0.08 0.07 0.05 0.05 0.05 0.04 0.03 0.04 0.04 0.04 0.03 0.03 0.02 0.02 0.02 0.02
0.00 0.00 0.00 0.00 0.00 0.00 0.00 0.00 0.00 0.00 0.00 0.00 0.00 0.00 0.00 0.00 0.00 0.01 0.02 0.03 0.03 0.04 0.04 0.05 0.05 0.06 0.08 0.09 0.07 0.06 0.05 0.04 0.03 0.03 0.03 0.03 0.03 0.02 0.02 0.02 0.02 0.01 0.01 0.01
0.00 0.00 0.00 0.00 0.00 0.00 0.00 0.00 0.00 0.00 0.00 0.00 0.00 0.01 0.00 0.01 0.01 0.01 0.02 0.02 0.03 0.04 0.04 0.05 0.07 0.09 0.10 0.09 0.07 0.06 0.05 0.04 0.04 0.04 0.03 0.03 0.03 0.03 0.03 0.02 0.01 0.01 0.01 0.01
0.00 0.00 0.00 0.00 0.00 0.00 0.00 0.00 0.00 0.00 0.00 0.00 0.00 0.00 0.01 0.01 0.01 0.01 0.02 0.02 0.03 0.04 0.04 0.05 0.07 0.07 0.07 0.07 0.07 0.08 0.06 0.05 0.04 0.04 0.03 0.03 0.03 0.03 0.02 0.01 0.01 0.01 0.01 0.01
0.00 0.00 0.00 0.00 0.00 0.00 0.00 0.00 0.00 0.00 0.00 0.00 0.00 0.00 0.01 0.01 0.02 0.02 0.02 0.02 0.02 0.03 0.05 0.07 0.08 0.09 0.07 0.06 0.06 0.07 0.08 0.05 0.04 0.03 0.03 0.03 0.03 0.02 0.02 0.01 0.01 0.01 0.01 0.01
0.00 0.00 0.00 0.00 0.00 0.00 0.00 0.00 0.00 0.00 0.00 0.00 0.00 0.00 0.00 0.01 0.01 0.02 0.02 0.02 0.03 0.04 0.06 0.07 0.07 0.07 0.06 0.06 0.05 0.07 0.08 0.06 0.04 0.04 0.04 0.03 0.02 0.02 0.02 0.01 0.01 0.01 0.00 0.01
0.00 0.00 0.00 0.00 0.00 0.00 0.00 0.00 0.00 0.00 0.00 0.00 0.01 0.00 0.00 0.01 0.01 0.01 0.02 0.02 0.02 0.02 0.03 0.04 0.06 0.06 0.06 0.08 0.07 0.08 0.10 0.08 0.05 0.05 0.04 0.03 0.03 0.02 0.02 0.02 0.01 0.01 0.01 0.01
0.00 0.00 0.00 0.00 0.00 0.00 0.00 0.00 0.00 0.00 0.01 0.00 0.00 0.00 0.01 0.01 0.01 0.01 0.01 0.01 0.01 0.01 0.02 0.02 0.03 0.03 0.04 0.05 0.06 0.07 0.09 0.09 0.07 0.07 0.05 0.04 0.03 0.02 0.02 0.02 0.02 0.02 0.02 0.02
0.00 0.00 0.00 0.00 0.00 0.00 0.00 0.01 0.00 0.00 0.00 0.00 0.00 0.01 0.01 0.01 0.01 0.01 0.01 0.01 0.01 0.01 0.02 0.02 0.01 0.02 0.02 0.02 0.03 0.04 0.06 0.05 0.04 0.05 0.05 0.05 0.04 0.03 0.03 0.03 0.03 0.03 0.03 0.03
0.00 0.00 0.00 0.00 0.00 0.00 0.00 0.01 0.01 0.01 0.01 0.01 0.00 0.00 0.00 0.01 0.01 0.01 0.01 0.01 0.01 0.01 0.01 0.01 0.01 0.01 0.02 0.02 0.03 0.04 0.05 0.04 0.04 0.04 0.04 0.04 0.04 0.04 0.04 0.04 0.05 0.04 0.04 0.03
0.00 0.00 0.00 0.00 0.00 0.00 0.00 0.01 0.01 0.01 0.01 0.00 0.00 0.00 0.00 0.01 0.01 0.01 0.01 0.01 0.01 0.00 0.01 0.00 0.00 0.00 0.01 0.01 0.02 0.03 0.04 0.05 0.05 0.03 0.02 0.01 0.01 0.01 0.01 0.01 0.02 0.01 0.01 0.01
0.01 0.00 0.00 0.00 0.00 0.01 0.01 0.01 0.02 0.01 0.00 0.00 0.00 0.00 0.00 0.01 0.01 0.01 0.01 0.01 0.01 0.01 0.01 0.00 0.01 0.01 0.01 0.01 0.02 0.03 0.03 0.05 0.06 0.05 0.03 0.01 0.01 0.01 0.00 0.00 0.01 0.01 0.00 0.00
0.00 0.00 0.00 0.01 0.01 0.01 0.01 0.01 0.01 0.01 0.00 0.00 0.00 0.00 0.00 0.01 0.01 0.01 0.01 0.01 0.00 0.00 0.00 0.00 0.01 0.01 0.01 0.01 0.01 0.02 0.03 0.05 0.07 0.08 0.06 0.04 0.03 0.02 0.02 0.01 0.01 0.00 0.00 0.00
0.01 0.01 0.00 0.00 0.00 0.00 0.01 0.01 0.01 0.01 0.00 0.00 0.00 0.00 0.00 0.00 0.01 0.01 0.01 0.00 0.00 0.00 0.00 0.00 0.01 0.01 0.01 0.01 0.01 0.01 0.04 0.05 0.05 0.06 0.05 0.04 0.04 0.04 0.03 0.02 0.01 0.01 0.00 0.00
0.00 0.00 0.00 0.00 0.00 0.00 0.01 0.01 0.01 0.00 0.00 0.00 0.00 0.00 0.00 0.00 0.00 0.00 0.00 0.01 0.01 0.01 0.01 0.01 0.01 0.01 0.01 0.01 0.01 0.02 0.04 0.05 0.04 0.05 0.05 0.05 0.04 0.04 0.04 0.02 0.01 0.01 0.00 0.00
0.00 0.00 0.00 0.00 0.00 0.00 0.00 0.00 0.00 0.00 0.00 0.00 0.00 0.00 0.00 0.00 0.00 0.00 0.01 0.01 0.02 0.02 0.01 0.01 0.01 0.01 0.01 0.01 0.01 0.03 0.03 0.03 0.03 0.04 0.05 0.05 0.04 0.04 0.04 0.02 0.01 0.00 0.00 0.00
0.00 0.00 0.00 0.00 0.00 0.00 0.00 0.00 0.00 0.00 0.00 0.00 0.01 0.01 0.00 0.00 0.00 0.01 0.01 0.02 0.02 0.03 0.03 0.01 0.02 0.02 0.01 0.01 0.01 0.01 0.02 0.03 0.03 0.04 0.05 0.06 0.05 0.04 0.05 0.04 0.01 0.00 0.00 0.01
0.00 0.00 0.00 0.00 0.00 0.00 0.00 0.00 0.00 0.00 0.00 0.00 0.00 0.01 0.01 0.01 0.00 0.01 0.01 0.02 0.02 0.03 0.03 0.03 0.03 0.03 0.01 0.00 0.00 0.00 0.00 0.01 0.02 0.02 0.03 0.04 0.04 0.03 0.04 0.04 0.03 0.01 0.00 0.00
0.00 0.00 0.00 0.00 0.00 0.00 0.00 0.00 0.01 0.01 0.00 0.00 0.00 0.00 0.01 0.01 0.00 0.01 0.01 0.02 0.02 0.03 0.04 0.03 0.02 0.02 0.01 0.00 0.00 0.00 0.01 0.01 0.00 0.01 0.02 0.02 0.01 0.01 0.02 0.02 0.02 0.01 0.01 0.00
MSLP
1013.68 1014.19 1014.54 1014.78 1014.98 1015.20 1015.51 1015.94 1016.46 1017.05 1017.62 1018.12 1018.50 1018.74 1018.85 1018.90 1018.95 1019.06 1019.28 1019.62 1020.08 1020.58 1021.08 1021.49 1021.78 1021.90 1021.88 1021.77 1021.60 1021.44 1021.36 1021.35 1021.44 1021.58 1021.74 1021.86 1021.91 1021.87 1021.73 1021.52 1021.25 1020.97 1020.70 1020.44
1013.74 1014.09 1014.30 1014.43 1014.59 1014.85 1015.26 1015.84 1016.55 1017.30 1018.02 1018.61 1019.01 1019.22 1019.24 1019.17 1019.09 1019.10 1019.24 1019.56 1020.03 1020.59 1021.16 1021.65 1022.00 1022.18 1022.20 1022.10 1021.93 1021.78 1021.70 1021.72 1021.83 1022.01 1022.20 1022.34 1022.41 1022.35 1022.18 1021.92 1021.59 1021.25 1020.92 1020.63
1013.63 1013.82 1013.89 1013.95 1014.09 1014.41 1014.95 1015.71 1016.61 1017.55 1018.42 1019.09 1019.52 1019.67 1019.61 1019.41 1019.19 1019.08 1019.14 1019.42 1019.89 1020.50 1021.14 1021.72 1022.16 1022.42 1022.50 1022.44 1022.31 1022.17 1022.11 1022.14 1022.27 1022.47 1022.68 1022.84 1022.90 1022.83 1022.63 1022.31 1021.94 1021.54 1021.16 1020.83
1013.43 1013.47 1013.43 1013.44 1013.61 1014.01 1014.70 1015.63 1016.73 1017.85 1018.84 1019.59 1020.03 1020.13 1019.97 1019.64 1019.29 1019.06 1019.03 1019.26 1019.73 1020.38 1021.09 1021.76 1022.30 1022.66 1022.81 1022.81 1022.72 1022.61 1022.56 1022.60 1022.74 1022.94 1023.14 1023.30 1023.35 1023.26 1023.03 1022.68 1022.25 1021.81 1021.39 1021.02
1013.24 1013.15 1013.04 1013.03 1013.24 1013.74 1014.58 1015.68 1016.94 1018.20 1019.30 1020.10 1020.53 1020.58 1020.32 1019.88 1019.41 1019.06 1018.95 1019.14 1019.60 1020.28 1021.06 1021.82 1022.45 1022.90 1023.14 1023.20 1023.15 1023.06 1023.02 1023.05 1023.16 1023.34 1023.53 1023.66 1023.70 1023.59 1023.33 1022.96 1022.51 1022.03 1021.58 1021.19
1013.13 1012.96 1012.80 1012.80 1013.06 1013.67 1014.62 1015.85 1017.24 1018.59 1019.75 1020.57 1020.98 1020.98 1020.63 1020.09 1019.52 1019.09 1018.92 1019.07 1019.53 1020.23 1021.07 1021.90 1022.62 1023.14 1023.46 1023.57 1023.56 1023.48 1023.42 1023.42 1023.50 1023.63 1023.78 1023.89 1023.90 1023.78 1023.51 1023.14 1022.68 1022.19 1021.73 1021.32
1013.16 1012.94 1012.78 1012.80 1013.11 1013.79 1014.82 1016.13 1017.56 1018.95 1020.12 1020.92 1021.29 1021.23 1020.83 1020.23 1019.61 1019.13 1018.93 1019.07 1019.54 1020.26 1021.14 1022.03 1022.80 1023.39 1023.75 1023.90 1023.90 1023.82 1023.73 1023.68 1023.70 1023.78 1023.88 1023.95 1023.94 1023.82 1023.56 1023.20 1022.76 1022.28 1021.81 1021.39
1013.34 1013.11 1012.95 1013.00 1013.36 1014.07 1015.12 1016.43 1017.85 1019.20 1020.31 1021.06 1021.38 1021.29 1020.86 1020.25 1019.62 1019.16 1018.98 1019.13 1019.62 1020.37 1021.27 1022.19 1022.99 1023.61 1024.00 1024.16 1024.16 1024.05 1023.92 1023.81 1023.77 1023.79 1023.84 1023.87 1023.85 1023.73 1023.50 1023.16 1022.75 1022.29 1021.83 1021.40
1013.60 1013.40 1013.28 1013.36 1013.74 1014.44 1015.45 1016.69 1018.02 1019.26 1020.28 1020.95 1021.22 1021.11 1020.70 1020.13 1019.57 1019.17 1019.04 1019.24 1019.77 1020.54 1021.45 1022.37 1023.18 1023.79 1024.18 1024.33 1024.31 1024.17 1023.99 1023.83 1023.73 1023.69 1023.69 1023.70 1023.66 1023.56 1023.36 1023.06 1022.68 1022.25 1021.80 1021.37
1013.88 1013.74 1013.67 1013.79 1014.16 1014.82 1015.74 1016.84 1018.02 1019.11 1019.99 1020.57 1020.80 1020.70 1020.35 1019.88 1019.44 1019.15 1019.13 1019.41 1019.98 1020.76 1021.66 1022.56 1023.34 1023.92 1024.28 1024.41 1024.36 1024.20 1023.98 1023.78 1023.63 1023.54 1023.51 1023.49 1023.45 1023.36 1023.19 1022.93 1022.59 1022.19 1021.75 1021.30
1014.08 1014.03 1014.04 1014.19 1014.54 1015.13 1015.92 1016.86 1017.84 1018.75 1019.48 1019.97 1020.17 1020.12 1019.88 1019.56 1019.28 1019.16 1019.27 1019.64 1020.25 1021.03 1021.90 1022.75 1023.47 1024.00 1024.32 1024.42 1024.35 1024.16 1023.93 1023.70 1023.52 1023.41 1023.34 1023.31 1023.27 1023.19 1023.05 1022.82 1022.51 1022.13 1021.69 1021.23
1014.16 1014.22 1014.32 1014.51 1014.84 1015.34 1015.99 1016.74 1017.52 1018.25 1018.84 1019.25 1019.46 1019.48 1019.38 1019.24 1019.15 1019.21 1019.47 1019.93 1020.57 1021.34 1022.16 1022.93 1023.58 1024.04 1024.31 1024.38 1024.29 1024.10 1023.87 1023.64 1023.45 1023.32 1023.24 1023.20 1023.15 1023.08 1022.95 1022.74 1022.46 1022.09 1021.66 1021.17
1014.12 1014.31 1014.50 1014.74 1015.05 1015.46 1015.97 1016.55 1017.14 1017.70 1018.17 1018.52 1018.75 1018.87 1018.93 1018.98 1019.10 1019.34 1019.73 1020.27 1020.94 1021.68 1022.42 1023.10 1023.65 1024.04 1024.25 1024.30 1024.22 1024.04 1023.83 1023.62 1023.44 1023.31 1023.22 1023.16 1023.10 1023.02 1022.89 1022.70 1022.42 1022.06 1021.63 1021.14
1014.03 1014.34 1014.62 1014.89 1015.19 1015.53 1015.92 1016.34 1016.76 1017.18 1017.55 1017.87 1018.14 1018.37 1018.58 1018.83 1019.14 1019.54 1020.05 1020.65 1021.31 1022.00 1022.66 1023.23 1023.69 1024.00 1024.17 1024.20 1024.13 1023.99 1023.81 1023.64 1023.48 1023.36 1023.26 1023.18 1023.10 1023.00 1022.86 1022.66 1022.38 1022.04 1021.62 1021.14
1013.96 1014.37 1014.72 1015.02 1015.31 1015.58 1015.86 1016.15 1016.44 1016.74 1017.05 1017.35 1017.66 1017.99 1018.36 1018.77 1019.24 1019.78 1020.37 1021.00 1021.65 1022.26 1022.83 1023.30 1023.66 1023.91 1024.04 1024.07 1024.03 1023.93 1023.80 1023.67 1023.54 1023.42 1023.31 1023.21 1023.09 1022.96 1022.79 1022.58 1022.32 1021.99 1021.60 1021.14
1014.00 1014.47 1014.86 1015.17 1015.43 1015.64 1015.83 1016.00 1016.19 1016.40 1016.66 1016.95 1017.31 1017.73 1018.21 1018.75 1019.35 1019.98 1020.63 1021.27 1021.88 1022.43 1022.90 1023.28 1023.57 1023.76 1023.87 1023.92 1023.91 1023.86 1023.79 1023.69 1023.59 1023.47 1023.34 1023.20 1023.04 1022.87 1022.67 1022.45 1022.19 1021.89 1021.54 1021.13
1014.19 1014.67 1015.06 1015.35 1015.56 1015.71 1015.81 1015.89 1015.99 1016.13 1016.34 1016.63 1017.02 1017.50 1018.07 1018.71 1019.39 1020.09 1020.77 1021.41 1021.98 1022.46 1022.86 1023.17 1023.40 1023.56 1023.67 1023.74 1023.77 1023.77 1023.74 1023.69 1023.59 1023.47 1023.31 1023.13 1022.92 1022.70 1022.48 1022.24 1022.00 1021.73 1021.43 1021.09
1014.53 1014.96 1015.30 1015.53 1015.67 1015.74 1015.76 1015.76 1015.79 1015.87 1016.04 1016.33 1016.73 1017.25 1017.87 1018.57 1019.31 1020.04 1020.74 1021.37 1021.91 1022.36 1022.71 1022.98 1023.18 1023.33 1023.45 1023.55 1023.62 1023.66 1023.67 1023.64 1023.55 1023.41 1023.22 1022.99 1022.73 1022.47 1022.21 1021.96 1021.73 1021.50 1021.27 1021.01
1014.91 1015.26 1015.51 1015.65 1015.71 1015.69 1015.63 1015.56 1015.52 1015.56 1015.70 1015.97 1016.38 1016.92 1017.57 1018.30 1019.07 1019.83 1020.54 1021.17 1021.70 1022.13 1022.47 1022.73 1022.93 1023.10 1023.24 1023.37 1023.48 1023.55 1023.59 1023.56 1023.47 1023.30 1023.07 1022.80 1022.49 1022.19 1021.90 1021.65 1021.43 1021.24 1021.07 1020.88
1015.23 1015.46 1015.59 1015.64 1015.60 1015.50 1015.37 1015.24 1015.16 1015.16 1015.28 1015.54 1015.95 1016.50 1017.17 1017.92 1018.71 1019.49 1020.21 1020.85 1021.40 1021.84 1022.19 1022.47 1022.70 1022.89 1023.06 1023.22 1023.36 1023.46 1023.50 1023.47 1023.37 1023.18 1022.91 1022.59 1022.25 1021.91 1021.60 1021.34 1021.13 1020.98 1020.85 1020.74
1015.34 1015.45 1015.47 1015.41 1015.29 1015.12 1014.94 1014.78 1014.68 1014.67 1014.79 1015.06 1015.48 1016.04 1016.72 1017.48 1018.29 1019.08 1019.83 1020.50 1021.07 1021.54 1021.93 1022.24 1022.50 1022.73 1022.93 1023.11 1023.27 1023.38 1023.43 1023.39 1023.27 1023.06 1022.77 1022.42 1022.05 1021.68 1021.35 1021.08 1020.88 1020.74 1020.65 1020.58
1015.17 1015.17 1015.09 1014.95 1014.77 1014.57 1014.37 1014.21 1014.13 1014.14 1014.29 1014.57 1015.01 1015.59 1016.28 1017.06 1017.88 1018.69 1019.46 1020.16 1020.77 1021.29 1021.71 1022.07 1022.36 1022.62 1022.85 1023.05 1023.21 1023.32 1023.36 1023.32 1023.18 1022.96 1022.66 1022.30 1021.91 1021.53 1021.19 1020.91 1020.70 1020.57 1020.49 1020.44
1014.67 1014.60 1014.46 1014.27 1014.07 1013.88 1013.71 1013.59 1013.56 1013.63 1013.82 1014.16 1014.63 1015.23 1015.94 1016.73 1017.56 1018.39 1019.18 1019.91 1020.55 1021.10 1021.56 1021.94 1022.27 1022.54 1022.78 1022.98 1023.14 1023.24 1023.28 1023.24 1023.11 1022.89 1022.59 1022.24 1021.86 1021.48 1021.13 1020.84 1020.62 1020.47 1020.37 1020.32
1013.91 1013.79 1013.62 1013.44 1013.27 1013.13 1013.03 1013.00 1013.05 1013.21 1013.48 1013.88 1014.39 1015.02 1015.75 1016.55 1017.38 1018.21 1019.01 1019.74 1020.40 1020.97 1021.45 1021.85 1022.18 1022.46 1022.69 1022.88 1023.03 1023.13 1023.16 1023.13 1023.01 1022.82 1022.55 1022.23 1021.87 1021.51 1021.17 1020.86 1020.62 1020.43 1020.30 1020.21
1012.99 1012.86 1012.70 1012.57 1012.46 1012.41 1012.42 1012.50 1012.68 1012.94 1013.30 1013.77 1014.34 1014.99 1015.73 1016.52 1017.34 1018.16 1018.94 1019.66 1020.31 1020.87 1021.34 1021.73 1022.05 1022.32 1022.53 1022.71 1022.84 1022.94 1022.98 1022.96 1022.88 1022.73 1022.51 1022.24 1021.93 1021.59 1021.26 1020.95 1020.68 1020.45 1020.26 1020.12
1012.03 1011.91 1011.80 1011.74 1011.73 1011.80 1011.94 1012.17 1012.47 1012.85 1013.30 1013.84 1014.45 1015.12 1015.85 1016.62 1017.41 1018.19 1018.93 1019.62 1020.23 1020.76 1021.20 1021.56 1021.86 1022.09 1022.28 1022.43 1022.55 1022.65 1022.70 1022.72 1022.68 1022.59 1022.44 1022.24 1021.98 1021.69 1021.37 1021.06 1020.76 1020.48 1020.23 1020.02
Thickness
5722 5712 5706 5713 5719 5720 5717 5712 5707 5713 5724 5720 5713 5712 5715 5718 5716 5713 5711 5708 5706 5706 5705 5703 5700 5699 5697 5695 5692 5689 5686 5684 5682 5679 5675 5673 5670 5669 5667 5666 5665 5664 5663 5662
5709 5708 5721 5725 5723 5720 5715 5709 5706 5712 5722 5716 5708 5708 5712 5714 5714 5713 5710 5707 5704 5701 5699 5697 5695 5692 5690 5687 5684 5682 5680 5678 5676 5674 5671 5668 5665 5662 5659 5658 5658 5657 5656 5654
5710 5717 5729 5725 5720 5716 5713 5709 5709 5709 5712 5712 5706 5699 5704 5709 5711 5710 5709 5707 5704 5700 5696 5693 5690 5687 5684 5681 5679 5677 5674 5672 5670 5668 5666 5662 5658 5655 5651 5650 5649 5648 5646 5645
5715 5724 5727 5724 5721 5720 5710 5722 5718 5711 5699 5689 5697 5682 5696 5701 5702 5705 5705 5703 5701 5699 5695 5690 5686 5682 5679 5676 5673 5671 5668 5665 5663 5661 5658 5655 5649 5645 5642 5641 5639 5638 5637 5636
5717 5726 5725 5722 5726 5726 5720 5724 5716 5707 5694 5685 5687 5679 5686 5695 5695 5701 5703 5702 5699 5696 5691 5687 5682 5678 5674 5670 5667 5664 5662 5659 5657 5655 5651 5647 5642 5638 5635 5633 5631 5630 5628 5628
5722 5733 5733 5731 5734 5732 5725 5714 5704 5691 5683 5673 5681 5674 5679 5687 5695 5700 5701 5699 5695 5691 5686 5681 5676 5672 5668 5664 5661 5658 5655 5652 5650 5647 5644 5639 5635 5631 5628 5624 5622 5620 5620 5619
5713 5724 5733 5736 5726 5724 5717 5695 5674 5671 5662 5666 5678 5673 5678 5695 5700 5699 5697 5695 5691 5686 5680 5675 5670 5666 5662 5659 5655 5651 5648 5645 5642 5640 5636 5631 5627 5624 5620 5616 5614 5612 5611 5610
5697 5699 5723 5730 5725 5715 5709 5699 5673 5662 5657 5662 5672 5668 5683 5697 5699 5699 5696 5691 5686 5680 5675 5670 5666 5661 5657 5653 5649 5645 5642 5638 5635 5631 5627 5624 5620 5616 5613 5610 5607 5604 5602 5601
5695 5698 5724 5730 5730 5721 5704 5692 5691 5670 5663 5657 5661 5672 5685 5693 5690 5689 5686 5683 5678 5674 5669 5665 5660 5656 5651 5647 5643 5640 5635 5631 5627 5624 5620 5616 5613 5610 5606 5603 5601 5598 5595 5594
5708 5699 5714 5723 5725 5716 5709 5693 5676 5666 5654 5650 5660 5665 5670 5682 5682 5680 5678 5675 5671 5667 5663 5658 5654 5649 5645 5641 5637 5633 5629 5624 5621 5617 5614 5610 5607 5603 5600 5597 5594 5591 5589 5587
5711 5696 5701 5708 5705 5703 5699 5690 5675 5662 5660 5650 5647 5660 5684 5683 5681 5676 5672 5669 5665 5661 5656 5651 5647 5642 5638 5634 5630 5626 5622 5618 5614 5611 5608 5604 5601 5598 5595 5591 5587 5584 5582 5580
5704 5688 5682 5694 5707 5710 5704 5692 5677 5668 5661 5653 5648 5658 5686 5683 5678 5674 5669 5664 5660 5655 5649 5644 5639 5635 5630 5626 5624 5620 5616 5613 5609 5605 5602 5598 5595 5592 5588 5585 5582 5579 5576 5574
5701 5684 5671 5675 5685 5696 5695 5690 5681 5669 5656 5646 5645 5660 5678 5676 5672 5668 5663 5658 5653 5647 5642 5637 5633 5628 5624 5620 5617 5614 5611 5607 5603 5600 5596 5592 5589 5586 5582 5579 5577 5574 5571 5569
5704 5682 5673 5669 5674 5684 5686 5686 5679 5669 5655 5651 5655 5664 5671 5669 5665 5661 5657 5652 5646 5641 5637 5631 5626 5622 5618 5615 5611 5608 5605 5602 5598 5594 5590 5586 5583 5580 5577 5574 5572 5569 5567 5565
5698 5680 5680 5681 5687 5687 5685 5684 5680 5673 5668 5661 5666 5665 5669 5667 5663 5657 5652 5646 5641 5636 5631 5627 5621 5617 5613 5609 5606 5603 5600 5596 5593 5589 5585 5582 5579 5576 5573 5570 5567 5565 5562 5561
5687 5679 5678 5678 5685 5684 5679 5681 5680 5677 5674 5668 5667 5665 5670 5665 5659 5652 5647 5642 5637 5632 5628 5623 5618 5613 5609 5605 5601 5598 5594 5592 5588 5584 5581 5578 5575 5573 5570 5567 5564 5561 5559 5557
5677 5674 5666 5662 5674 5677 5667 5677 5678 5676 5676 5672 5665 5667 5664 5657 5654 5649 5644 5639 5634 5629 5624 5618 5614 5609 5605 5601 5597 5593 5590 5587 5584 5581 5578 5575 5572 5569 5566 5564 5561 5558 5555 5553
5674 5666 5655 5655 5663 5654 5669 5685 5684 5677 5675 5673 5670 5667 5662 5658 5652 5647 5642 5636 5631 5625 5619 5614 5609 5605 5600 5597 5593 5590 5586 5583 5580 5577 5574 5572 5569 5567 5564 5561 5558 5555 5553 5551
5679 5667 5653 5646 5648 5655 5671 5681 5680 5673 5670 5674 5667 5661 5655 5650 5645 5639 5638 5634 5629 5623 5617 5611 5606 5601 5597 5593 5590 5586 5583 5580 5577 5574 5572 5570 5567 5565 5562 5559 5556 5554 5552 5550
5673 5668 5655 5646 5647 5646 5666 5683 5687 5677 5664 5672 5666 5658 5651 5647 5637 5636 5636 5631 5625 5619 5614 5608 5603 5598 5594 5590 5587 5583 5580 5577 5574 5572 5570 5568 5565 5562 5560 5558 5555 5553 5551 5549
5664 5658 5651 5646 5645 5653 5675 5683 5682 5659 5662 5672 5666 5659 5651 5646 5643 5640 5635 5628 5622 5616 5611 5606 5601 5596 5592 5588 5584 5581 5577 5575 5573 5571 5568 5566 5564 5561 5559 5556 5554 5552 5550 5549
5660 5654 5650 5644 5643 5652 5680 5679 5671 5669 5674 5671 5665 5659 5652 5646 5641 5637 5631 5625 5618 5612 5608 5603 5598 5593 5589 5586 5583 5579 5576 5574 5572 5570 5567 5565 5563 5561 5559 5556 5554 5552 5550 5549
5663 5664 5660 5657 5660 5673 5678 5679 5680 5676 5672 5668 5663 5657 5651 5644 5639 5634 5628 5622 5616 5611 5606 5601 5597 5591 5587 5584 5582 5579 5576 5574 5571 5569 5566 5564 5563 5560 5558 5556 5554 5552 5551 5549
5666 5665 5661 5660 5668 5675 5677 5678 5678 5676 5673 5669 5664 5657 5651 5644 5638 5632 5626 5620 5615 5610 5605 5600 5596 5591 5587 5584 5582 5580 5577 5574 5571 5568 5566 5564 5562 5560 5558 5556 5555 5553 5552 5551
5666 5662 5658 5660 5669 5674 5676 5676 5676 5674 5671 5666 5661 5656 5650 5644 5636 5630 5624 5619 5614 5609 5604 5600 5596 5592 5588 5585 5582 5581 5578 5575 5571 5569 5566 5564 5563 5561 5559 5557 5556 5555 5554 5553
5667 5665 5661 5664 5674 5672 5674 5678 5676 5671 5668 5664 5659 5652 5647 5643 5636 5629 5623 5618 5614 5609 5604 5599 5596 5592 5590 5587 5584 5582 5579 5576 5573 5570 5568 5566 5564 5562 5560 5559 5558 5559 5558 5558